FW3667 Weather Reports


time (UTC)temp
C
wind
direction
speed
KPH
gust
KPH
rain 1hr
cm
rain 24hr
cm
rain mn
cm
humidity
%
barometer
mb
20260510190018 22 92 0.0 8.0 0.00 0.00 0.00 59 1013.2
20260510184518 22 34 0.0 11.3 0.00 0.00 0.00 59 1013.0
20260510183013 22 199 1.6 8.0 0.00 0.00 0.00 63 1013.0
20260510181511 22 7 0.0 12.9 0.00 0.00 0.00 63 1013.2
20260510180013 22 2 0.0 8.0 0.00 0.00 0.00 62 1013.2
20260510174509 21 79 1.6 8.0 0.00 0.00 0.00 61 1013.1
20260510173007 21 49 1.6 9.7 0.00 0.00 0.00 60 1013.1
20260510171537 21 335 0.0 8.0 0.00 0.00 0.00 63 1012.9
20260510170037 21 352 1.6 11.3 0.00 0.00 0.00 61 1012.8
20260510164537 21 359 1.6 11.3 0.00 0.00 0.00 60 1012.7
20260510163031 21 45 1.6 11.3 0.00 0.00 0.00 62 1012.6
20260510161529 21 48 1.6 6.4 0.00 0.00 0.00 63 1012.4
20260510160024 20 11 0.0 6.4 0.00 0.00 0.00 65 1012.6
20260510154526 20 28 0.0 8.0 0.00 0.00 0.00 67 1012.5
20260510153020 20 100 0.0 11.3 0.00 0.00 0.00 67 1012.6
20260510151519 20 353 1.6 14.5 0.00 0.00 0.00 67 1012.5
20260510150018 20 355 3.2 8.0 0.00 0.00 0.00 68 1012.3
20260510144512 20 341 1.6 11.3 0.00 0.00 0.00 70 1012.1
20260510143011 18 20 1.6 8.0 0.00 0.00 0.00 72 1012.0
20260510141505 18 21 1.6 8.0 0.00 0.00 0.00 75 1011.8
20260510140004 18 32 1.6 6.4 0.00 0.00 0.00 76 1011.7
20260510134628 17 15 1.6 9.7 0.00 0.00 0.00 76 1011.4
20260510133056 17 342 1.6 4.8 0.00 0.00 0.00 77 1011.1
20260510131553 17 21 0.0 4.8 0.00 0.00 0.00 77 1010.9
20260510130051 16 23 0.0 4.8 0.00 0.00 0.00 79 1010.9
20260510124555 16 8 0.0 4.8 0.00 0.00 0.00 78 1010.8
20260510123014 15 352 0.0 1.6 0.00 0.00 0.00 86 1010.8
20260510121510 13 19 0.0 3.2 0.00 0.00 0.00 91 1010.9
20260510120007 13 19 0.0 0.0 0.00 0.00 0.00 90 1010.5
20260510114506 12 19 0.0 0.0 0.00 0.00 0.00 90 1010.2
20260510113003 12 19 0.0 0.0 0.00 0.00 0.00 91 1010.2
20260510111502 12 19 0.0 0.0 0.00 0.00 0.00 91 1010.2
20260510110100 12 19 0.0 0.0 0.00 0.00 0.00 91 1010.2
20260510104613 12 359 0.0 0.0 0.00 0.00 0.00 90 1009.9
20260510103056 12 357 0.0 0.0 0.00 0.00 0.00 90 1009.6
20260510101555 12 357 0.0 0.0 0.00 0.00 0.00 90 1009.6
20260510100049 12 357 0.0 0.0 0.00 0.00 0.00 88 1009.3
20260510094547 12 357 0.0 0.0 0.00 0.00 0.00 88 1008.9
20260510093045 13 357 0.0 0.0 0.00 0.00 0.00 86 1008.7
20260510091543 13 357 0.0 0.0 0.00 0.00 0.00 86 1009.0
20260510090011 13 357 0.0 0.0 0.00 0.00 0.00 85 1008.9
20260510084511 13 357 0.0 0.0 0.00 0.00 0.00 82 1009.1
20260510083048 13 357 0.0 6.4 0.00 0.00 0.00 83 1009.0
20260510081557 12 21 0.0 0.0 0.00 0.00 0.00 90 1008.6
20260510080002 12 21 0.0 0.0 0.00 0.00 0.00 89 1008.4
20260510074501 12 21 0.0 0.0 0.00 0.00 0.00 88 1008.1
20260510073032 12 21 0.0 0.0 0.00 0.00 0.00 88 1008.2
20260510071530 12 21 0.0 0.0 0.00 0.00 0.00 88 1008.2
20260510064558 12 21 0.0 0.0 0.00 0.00 0.00 87 1008.4
20260510063105 12 21 0.0 0.0 0.00 0.00 0.00 86 1008.5
20260510061556 12 21 0.0 0.0 0.00 0.00 0.00 85 1008.5
20260510060059 12 21 0.0 0.0 0.00 0.00 0.00 84 1008.6
20260510054558 13 21 0.0 0.0 0.00 0.00 0.00 84 1008.5
20260510053024 13 21 0.0 0.0 0.00 0.00 0.00 81 1008.3
20260510051524 13 21 0.0 0.0 0.00 0.00 0.00 80 1008.5
20260510050020 14 21 0.0 0.0 0.00 0.00 0.00 78 1008.2
20260510044518 15 21 0.0 0.0 0.00 0.00 0.00 75 1007.9
20260510043018 15 21 0.0 0.0 0.00 0.00 0.00 73 1007.8
20260510041520 15 21 0.0 0.0 0.00 0.00 0.00 74 1007.8
20260510040048 15 20 0.0 1.6 0.00 0.00 0.00 73 1007.8
20260510034553 15 21 0.0 0.0 0.00 0.00 0.00 72 1007.8
20260510033047 15 21 0.0 1.6 0.00 0.00 0.00 73 1007.6
20260510031608 15 21 0.0 0.0 0.00 0.00 0.00 76 1007.3
20260510030040 14 21 0.0 0.0 0.00 0.00 0.00 78 1007.2
20260510024540 15 21 0.0 0.0 0.00 0.00 0.00 79 1006.9
20260510023045 15 21 0.0 1.6 0.00 0.00 0.00 77 1006.6
20260510021536 15 21 0.0 0.0 0.00 0.00 0.00 76 1006.4
20260510020033 16 21 0.0 0.0 0.00 0.00 0.00 75 1006.1
20260510014533 16 21 0.0 0.0 0.00 0.00 0.00 76 1006.0
20260510013028 16 21 0.0 0.0 0.00 0.00 0.00 74 1005.9
20260510011529 17 24 0.0 0.0 0.00 0.00 0.00 72 1005.7
20260510010029 18 24 0.0 0.0 0.00 0.00 0.00 69 1005.5
20260510004527 20 24 0.0 0.0 0.00 0.00 0.00 64 1005.4
20260510003025 21 24 0.0 0.0 0.00 0.00 0.00 60 1005.0
20260510001524 22 50 0.0 1.6 0.00 0.00 0.00 54 1004.9
20260510000024 22 97 0.0 1.6 0.00 0.00 0.00 54 1004.8
20260509234524 23 63 0.0 0.0 0.00 0.00 0.00 52 1004.8
20260509233022 23 38 0.0 1.6 0.00 0.00 0.00 53 1004.8
20260509231519 23 38 0.0 0.0 0.00 0.00 0.00 57 1004.9
20260509230022 23 38 0.0 0.0 0.00 0.00 0.00 61 1004.9
20260509230019 23 38 0.0 0.0 0.00 0.00 0.00 60 1004.9
20260509224520 24 38 0.0 0.0 0.00 0.00 0.00 54 1004.7
20260509223022 26 38 0.0 1.6 0.00 0.00 0.00 51 1004.7
20260509221516 26 52 0.0 3.2 0.00 0.00 0.00 42 1004.6
20260509220016 25 14 0.0 0.0 0.00 0.00 0.00 55 1004.6
20260509214515 27 14 0.0 0.0 0.00 0.00 0.00 45 1004.5
20260509213015 28 14 0.0 3.2 0.00 0.00 0.00 32 1004.6
20260509211525 28 31 0.0 1.6 0.00 0.00 0.00 34 1004.6
20260509210015 28 47 0.0 4.8 0.00 0.00 0.00 35 1004.8
20260509204511 27 357 0.0 3.2 0.00 0.00 0.00 32 1005.1
20260509203026 27 158 0.0 3.2 0.00 0.00 0.00 35 1005.2
20260509201508 28 26 0.0 3.2 0.00 0.00 0.00 33 1005.4
20260509200008 28 77 0.0 6.4 0.00 0.00 0.00 36 1005.5
20260509194506 28 118 1.6 3.2 0.00 0.00 0.00 34 1005.6
20260509193005 27 19 1.6 6.4 0.00 0.00 0.00 32 1005.6
20260509191502 27 18 0.0 4.8 0.00 0.00 0.00 33 1005.7